Погода в Санчурске

Россия / Кировская область     56°56′28″N   47°14′56″E
темп.,
°C
ветер,
м/с
пор.,
м/с
влажн.,
%
обл.,
%
осадки,
мм/ч
давл.,
гПа
погр.,
м
8 августа, пн
пн800:00+20ююз226292 0.0 101922
03:00+18юз227159 0.0 102013
06:00+19ююв23735 0.0 102165
09:00+24зюз22586 0.0 1020436
12:00+27зсз12485 0.0 10211125
15:00+28с224221 0.0 10201662
18:00+26вюв225643 0.0 101926
21:00+20с227225 0.0 102119
9 августа, вт
вт900:00+19в237722 0.0 102023
03:00+17сз118164 0.0 102011
06:00+20всв10745 0.0 102040
09:00+24ююв12575 0.0 1020391
12:00+28ююз124340 0.0 10201375
15:00+29ююз123639 0.0 10182406
18:00+22з51071100 0.1 1018238
21:00+18юв1185100 0.9 101916
10 августа, ср
ср1000:00+18ю2288100 0.1 101829
03:00+16зсз3594100 0.6 101893
06:00+17св3594100 0.6 1018121
09:00+20юз4582100 0.9 1019516
12:00+18юз3695100 2.5 1019319
15:00+21юз467756 4.7 1018805
18:00+18зюз3688100 3.1 1017136
21:00+16сз3595100 4.8 1017115
11 августа, чт
чт1100:00+14зсз359834 1.9 1017107
03:00+13ссз379614 3.4 1018225
06:00+12сз5109442 0.0 1020502
09:00+16ссз712715 0.0 1021992
12:00+20сз7105129 0.0 10212130
15:00+21ссз585130 0.0 10211459
18:00+18зсз41065100 0.0 1021283
21:00+16зсз3570100 0.0 1022104
12 августа, пт
пт1200:00+15з3571100 0.0 102298
03:00+14зсз367581 0.0 1022106
06:00+14з3878100 0.0 1022196
09:00+19з586180 0.0 1021557
12:00+23зсз685127 0.0 10201498
15:00+24зсз68518 0.0 10191946
18:00+21з49640 0.0 1019270
21:00+17з49720 0.0 1019131